Weather History for Paganella, Italy

Change the Weather History Date:

Sunday, November 24, 2013

  Actual Average Record
Temperature  
Mean Temperature 22 °F -  
Max Temperature 24 °F 31 °F 49 °F (2014)
Min Temperature 19 °F 22 °F 10 °F (2001)
Degree Days  
Heating Degree Days 43    
Moisture  
Dew Point 17 °F    
Average Humidity 75    
Maximum Humidity 93    
Minimum Humidity 53    
Precipitation  
Precipitation 0.00 in 0.04 in - ()
Sea Level Pressure  
Sea Level Pressure 29.57 in    
Wind  
Wind Speed 19 mph ()    
Max Wind Speed 31 mph    
Max Gust Speed -    
Visibility 7.3 miles    
Events Fog , Snow    
Averages and records for this station are not official NWS values.
T = Trace of Precipitation, MM = Missing Value Source: Averaged Metar Reports

Daily Weather History Graph

Daily Weather History Graph

Search for Another Location

Airport:

Trip Planner

Search our weather history database for the weather conditions in past years. The results will help you decide how hot, cold, wet, or windy it might be!

Date:

Astronomy

Nov. 24, 2013 Rise Set
Actual Time 7:29 AM CET 4:35 PM CET
Civil Twilight 6:55 AM CET 5:09 PM CET
Nautical Twilight 6:18 AM CET 5:46 PM CET
Astronomical Twilight 5:42 AM CET 6:21 PM CET
Moon 10:55 PM CET (11/24) 11:59 AM CET (11/24)
Length of Visible Light 10h 13m
Length of Day
9h 06m
Waning Gibbous, 63% of the Moon is Illuminated
Nov 24
Waning Gibbous
Nov 25
Last Quarter
Dec 3
New
Dec 9
First Quarter
Dec 17
Full

Hourly Weather History & Observations

Time (CET) Temp. Windchill Dew Point Humidity Pressure Visibility Wind Dir Wind Speed Gust Speed Precip Events Conditions
12:00 AM 23 °F - 22 °F 92%  in 0 mi North 15.0 mph - - Snow Light Snow
12:55 AM 23.0 °F 10.6 °F 19.4 °F 86% 29.47 in 6.2 mi North 13.8 mph - N/A   Mostly Cloudy
1:00 AM 23 °F - 19 °F 80%  in 7 mi North 13.8 mph - - Fog Light Fog
1:55 AM 23.0 °F 10.1 °F 17.6 °F 80% 29.47 in 6.2 mi North 15.0 mph - N/A   Mostly Cloudy
2:00 AM 23 °F - 18 °F 75%  in 9 mi North 15.0 mph - -   Overcast
2:55 AM 23.0 °F 10.1 °F 17.6 °F 80% 29.47 in 6.2 mi North 15.0 mph - N/A   Mostly Cloudy
3:55 AM 23.0 °F 10.6 °F 17.6 °F 80% 29.47 in 6.2 mi North 13.8 mph - N/A   Mostly Cloudy
4:00 AM 23 °F - 18 °F 75%  in 9 mi North 13.8 mph - -   Overcast
4:55 AM 23.0 °F 9.6 °F 19.4 °F 86% 29.50 in 6.2 mi North 16.1 mph - N/A   Mostly Cloudy
5:55 AM 23.0 °F 8.7 °F 19.4 °F 86% 29.50 in 6.2 mi North 18.4 mph - N/A   Mostly Cloudy
6:00 AM 23 °F - 19 °F 77%  in 19 mi North 18.4 mph - -   Overcast
6:55 AM 21.2 °F 6.8 °F 19.4 °F 93% 29.53 in 6.2 mi North 17.3 mph - N/A   Mostly Cloudy
7:00 AM 22 °F - 19 °F 85%  in 19 mi North 17.3 mph - -   Overcast
7:55 AM 21.2 °F 5.6 °F 19.4 °F 93% 29.53 in 6.2 mi North 20.7 mph - N/A   Mostly Cloudy
8:55 AM 23.0 °F 7.2 °F 17.6 °F 80% 29.56 in 6.2 mi North 23.0 mph - N/A   Mostly Cloudy
9:00 AM 22 °F - 18 °F 78%  in 4 mi North 23.0 mph - -   Mist
9:55 AM 21.2 °F 3.0 °F 17.6 °F 86% 29.56 in 6.2 mi North 29.9 mph - N/A   Mostly Cloudy
10:00 AM 22 °F - 18 °F 76%  in 12 mi North 29.9 mph - - Snow Low Drifting Snow
10:55 AM 21.2 °F 3.3 °F 17.6 °F 86% 29.59 in 6.2 mi NNE 28.8 mph - N/A Snow Low Drifting Snow
11:00 AM 22 °F - 17 °F 72%  in 25 mi NNE 28.8 mph - - Snow Low Drifting Snow
11:55 AM 23.0 °F 6.3 °F 15.8 °F 74% 29.59 in 6.2 mi NNE 26.5 mph - N/A Snow Low Drifting Snow
12:00 PM 23 °F - 16 °F 64%  in 25 mi NNE 26.5 mph - -   Overcast
12:55 PM 23.0 °F 5.4 °F 15.8 °F 74% 29.59 in 6.2 mi NNE 29.9 mph - N/A Snow Low Drifting Snow
1:00 PM 23 °F - 15 °F 61%  in 31 mi NNE 29.9 mph - - Snow Low Drifting Snow
1:55 PM 23.0 °F 5.7 °F 14.0 °F 68% 29.59 in 6.2 mi North 28.8 mph - N/A Snow Low Drifting Snow
2:55 PM 23.0 °F 6.0 °F 14.0 °F 68% 29.59 in 6.2 mi North 27.6 mph - N/A Snow Low Drifting Snow
3:55 PM 24.8 °F 7.6 °F 14.0 °F 64% 29.59 in 6.2 mi North 31.1 mph - N/A Snow Low Drifting Snow
4:00 PM 24 °F - 14 °F 53%  in 37 mi North 31.1 mph - - Snow Low Drifting Snow
4:55 PM 23.0 °F 5.4 °F 14.0 °F 68% 29.59 in 6.2 mi NNE 29.9 mph - N/A Snow Low Drifting Snow
5:00 PM 24 °F - 15 °F 56%  in 31 mi NNE 29.9 mph - - Snow Low Drifting Snow
5:55 PM 23.0 °F 5.7 °F 14.0 °F 68% 29.62 in 6.2 mi NNE 28.8 mph - N/A Snow Low Drifting Snow
6:00 PM 23 °F - 14 °F 58%  in 25 mi NNE 28.8 mph - - Snow Low Drifting Snow
6:55 PM 23.0 °F 6.3 °F 15.8 °F 74% 29.62 in 6.2 mi North 26.5 mph - N/A Snow Low Drifting Snow
7:00 PM 23 °F - 15 °F 62%  in 37 mi North 26.5 mph - - Snow Low Drifting Snow
7:55 PM 21.2 °F 3.5 °F 15.8 °F 80% 29.62 in 6.2 mi North 27.6 mph - N/A Snow Low Drifting Snow
8:00 PM 22 °F - 15 °F 66%  in 37 mi North 27.6 mph - - Snow Low Drifting Snow
8:55 PM 21.2 °F 5.6 °F 15.8 °F 80% 29.62 in - North 20.7 mph - N/A   Clear
9:00 PM 22 °F - 15 °F 64%  in 37 mi North 20.7 mph - -   Mostly Cloudy
9:55 PM 21.2 °F 6.0 °F 15.8 °F 80% 29.65 in - North 19.6 mph - N/A   Clear
10:00 PM 21 °F - 15 °F 69%  in 37 mi North 19.6 mph - -   Mostly Cloudy
10:55 PM 21.2 °F 6.4 °F 15.8 °F 80% 29.65 in - NNE 18.4 mph - N/A   Clear
11:00 PM 20 °F - 15 °F 74%  in 37 mi NNE 18.4 mph - -   Mostly Cloudy
11:55 PM 19.4 °F 4.5 °F 14.0 °F 80% 29.65 in - North 17.3 mph - N/A   Clear